Terminal Aerodrome Forecast
Issued by NWS Central Illinois

Home | Current Version | Previous Version | Text Only | Print | Product List | Glossary On
Versions: 1 2 3 4 5 6 7 8 9 10 11 12 13 14 15 16 17
688
FTUS43 KILX 111740
TAFSPI
TAF
KSPI 111740Z 1118/1218 VRB05KT P6SM SCT250
     FM120000 VRB03KT P6SM BKN080
     FM120300 VRB04KT 5SM -SN OVC035
     FM120500 20005KT 2SM -SN BR OVC012
     FM121100 27007KT P6SM OVC018
     FM121500 29012G17KT P6SM BKN025=

USA.gov is the U.S. government's official web portal to all federal, state and local government web resources and services.